Location: Unspecified
(0.0000°N, 0.0000°E)
Time: 06:55:15
(UTC+01:00)

ASC 2 Rocket - Visible Passes

Search period start: 14 February 2016 00:00
Search period end: 24 February 2016 00:00
Orbit: 555 x 2346 km, 24.0° (Epoch: 13 February)

Date Brightness Start Highest point End Pass type
(mag) Time Alt. Az. Time Alt. Az. Time Alt. Az.
14 Feb 7.3 00:09:36 10° WSW 00:11:58 17° WSW 00:11:58 17° WSW visible
14 Feb 6.6 20:56:12 10° SW 21:08:29 33° SSE 21:14:48 24° SE visible
14 Feb 6.5 23:01:14 10° SW 23:09:36 38° SW 23:09:36 38° SW visible
15 Feb 6.9 19:48:41 10° SW 19:59:40 28° SSE 20:11:06 10° ESE visible
15 Feb 6.1 21:53:14 10° SW 22:06:55 47° SSE 22:07:16 47° SSE visible
15 Feb 7.2 23:58:44 10° WSW 00:02:04 20° WSW 00:02:04 20° WSW visible
16 Feb 6.5 20:45:39 10° SW 20:58:21 38° SSE 21:04:58 27° ESE visible
16 Feb 6.3 22:50:21 10° WSW 22:59:46 46° SW 22:59:46 46° SW visible
17 Feb 6.8 19:38:31 10° SW 19:49:40 31° SSE 20:01:42 10° ESE visible
17 Feb 5.9 21:42:29 10° SW 21:56:32 56° SSE 21:57:30 56° SE visible
17 Feb 7.1 23:48:01 10° WSW 23:52:18 23° WSW 23:52:18 23° WSW visible
18 Feb 6.3 20:35:08 10° SW 20:48:02 45° SSE 20:55:14 28° ESE visible
18 Feb 6.1 22:39:37 10° WSW 22:50:04 55° SW 22:50:04 55° SW visible
19 Feb 6.6 19:28:20 10° SW 19:39:32 35° SSE 19:52:08 10° E visible
19 Feb 5.7 21:31:52 10° SW 21:45:59 67° SSE 21:47:51 63° ESE visible
19 Feb 7.0 23:37:30 10° WSW 23:42:40 27° W 23:42:40 27° W visible
20 Feb 6.1 20:24:43 10° SW 20:37:33 53° SSE 20:45:41 28° E visible
20 Feb 6.0 22:29:05 10° WSW 22:40:30 63° WSW 22:40:30 63° WSW visible
21 Feb 6.4 19:18:10 10° SW 19:29:14 41° SSE 19:42:22 10° E visible
21 Feb 5.7 21:21:25 10° WSW 21:35:20 79° SSE 21:38:23 63° E visible
21 Feb 6.9 23:27:12 10° W 23:33:13 29° W 23:33:13 29° W visible
22 Feb 5.9 20:14:25 10° SW 20:26:59 62° SSE 20:36:17 26° E visible
22 Feb 5.9 22:18:46 10° WSW 22:31:07 66° WNW 22:31:07 66° WNW visible
23 Feb 5.7 21:11:09 10° WSW 21:24:37 89° NNW 21:29:03 55° ENE visible
23 Feb 6.9 23:17:09 10° W 23:23:53 31° WNW 23:23:53 31° WNW visible
